Weather History for St. James, MN

Change the Weather History Date:

Monday, April 15, 2013

  Actual Average Record
Temperature  
Mean Temperature 38 °F -  
Max Temperature 44 °F 60 °F 91 °F (2002)
Min Temperature 33 °F 35 °F 17 °F (2014)
Degree Days  
Heating Degree Days 26    
Moisture  
Dew Point 27 °F    
Average Humidity 62    
Maximum Humidity 70    
Minimum Humidity 49    
Precipitation  
Precipitation 0.00 in - - ()
Sea Level Pressure  
Sea Level Pressure 29.77 in    
Wind  
Wind Speed 19 mph (WSW)    
Max Wind Speed 31 mph    
Max Gust Speed 39 mph    
Visibility 10 miles    
Events      
Averages and records for this station are not official NWS values.
T = Trace of Precipitation, MM = Missing Value Source: NWS Daily Summary

Daily Weather History Graph

Daily Weather History Graph

Search for Another Location

Airport:

Trip Planner

Search our weather history database for the weather conditions in past years. The results will help you decide how hot, cold, wet, or windy it might be!

Date:

Astronomy

Apr. 15, 2013 Rise Set
Actual Time 6:34 AM CDT 8:02 PM CDT
Civil Twilight 6:04 AM CDT 8:32 PM CDT
Nautical Twilight 5:28 AM CDT 9:09 PM CDT
Astronomical Twilight 4:49 AM CDT 9:48 PM CDT
Moon 9:55 AM CDT (4/15) 12:21 AM CDT (4/15)
Length of Visible Light 14h 28m
Length of Day
13h 27m
Waxing Crescent, 25% of the Moon is Illuminated
Apr 15
Waxing Crescent
Apr 18
First Quarter
Apr 25
Full
May 2
Last Quarter
May 9
New

Hourly Weather History & Observations

Time (CDT) Temp. Windchill Dew Point Humidity Pressure Visibility Wind Dir Wind Speed Gust Speed Precip Events Conditions
12:15 AM 39.2 °F 30.5 °F 28.4 °F 65% 29.54 in 10.0 mi SW 16.1 mph 23.0 mph N/A   Clear
12:35 AM 39.2 °F 30.2 °F 28.4 °F 65% 29.54 in 10.0 mi SW 17.3 mph 21.9 mph N/A   Clear
12:55 AM 39.2 °F 31.2 °F 26.6 °F 61% 29.55 in 10.0 mi SW 13.8 mph 19.6 mph N/A   Clear
1:15 AM 39.2 °F 30.8 °F 28.4 °F 65% 29.55 in 10.0 mi SW 15.0 mph 21.9 mph N/A   Clear
1:35 AM 39.2 °F 30.2 °F 28.4 °F 65% 29.56 in 10.0 mi WSW 17.3 mph - N/A   Mostly Cloudy
1:55 AM 39.2 °F 29.6 °F 28.4 °F 65% 29.56 in 10.0 mi WSW 19.6 mph 27.6 mph N/A   Overcast
2:15 AM 37.4 °F 28.5 °F 26.6 °F 65% 29.57 in 10.0 mi WSW 15.0 mph 31.1 mph N/A   Scattered Clouds
2:35 AM 37.4 °F 27.5 °F 26.6 °F 65% 29.57 in 10.0 mi SW 18.4 mph 23.0 mph N/A   Clear
2:54 AM 37.4 °F 27.8 °F 26.6 °F 65% 29.58 in 10.0 mi SW 17.3 mph 27.6 mph N/A   Clear
3:15 AM 35.6 °F 24.0 °F 24.8 °F 65% 29.58 in 10.0 mi SW 23.0 mph - N/A   Clear
3:35 AM 35.6 °F 24.8 °F 24.8 °F 65% 29.58 in 10.0 mi SW 19.6 mph 26.5 mph N/A   Clear
3:55 AM 35.6 °F 26.2 °F 24.8 °F 65% 29.58 in 10.0 mi SW 15.0 mph 20.7 mph N/A   Clear
4:14 AM 35.6 °F 24.8 °F 23.0 °F 60% 29.59 in 10.0 mi SW 19.6 mph 26.5 mph N/A   Clear
4:35 AM 33.8 °F 24.8 °F 24.8 °F 70% 29.59 in 10.0 mi SW 12.7 mph - N/A   Mostly Cloudy
4:54 AM 33.8 °F 21.6 °F 21.2 °F 60% 29.60 in 10.0 mi SW 23.0 mph 29.9 mph N/A   Mostly Cloudy
5:15 AM 33.8 °F 22.5 °F 21.2 °F 60% 29.60 in 10.0 mi WSW 19.6 mph 31.1 mph N/A   Scattered Clouds
5:35 AM 33.8 °F 22.8 °F 24.8 °F 70% 29.60 in 10.0 mi SW 18.4 mph 21.9 mph N/A   Mostly Cloudy
5:54 AM 33.8 °F 21.9 °F 23.0 °F 65% 29.60 in 10.0 mi SW 21.9 mph 28.8 mph N/A   Overcast
6:15 AM 33.8 °F 22.8 °F 24.8 °F 70% 29.61 in 10.0 mi SW 18.4 mph 25.3 mph N/A   Overcast
6:35 AM 33.8 °F 21.9 °F 24.8 °F 70% 29.62 in 10.0 mi SW 21.9 mph 29.9 mph N/A   Overcast
6:55 AM 33.8 °F 22.2 °F 24.8 °F 70% 29.63 in 10.0 mi SW 20.7 mph 29.9 mph N/A   Overcast
7:15 AM 35.6 °F 25.5 °F 24.8 °F 65% 29.64 in 10.0 mi SSW 17.3 mph 23.0 mph N/A   Overcast
7:35 AM 35.6 °F 24.2 °F 24.8 °F 65% 29.65 in 10.0 mi SSW 21.9 mph 26.5 mph N/A   Overcast
7:55 AM 35.6 °F 24.8 °F 26.6 °F 70% 29.65 in 10.0 mi SW 19.6 mph 24.2 mph N/A   Overcast
8:15 AM 35.6 °F 25.2 °F 26.6 °F 70% 29.65 in 10.0 mi SW 18.4 mph 25.3 mph N/A   Overcast
8:34 AM 35.6 °F 24.8 °F 26.6 °F 70% 29.64 in 10.0 mi SW 19.6 mph 27.6 mph N/A   Overcast
8:55 AM 37.4 °F 27.5 °F 26.6 °F 65% 29.65 in 10.0 mi SW 18.4 mph 23.0 mph N/A   Overcast
9:15 AM 37.4 °F 29.3 °F 26.6 °F 65% 29.67 in 10.0 mi SW 12.7 mph 21.9 mph N/A   Overcast
9:35 AM 37.4 °F 28.2 °F 26.6 °F 65% 29.69 in 10.0 mi SW 16.1 mph 27.6 mph N/A   Overcast
9:54 AM 37.4 °F 26.6 °F 26.6 °F 65% 29.69 in 10.0 mi SW 21.9 mph 26.5 mph N/A   Overcast
10:15 AM 39.2 °F 28.5 °F 28.4 °F 65% 29.71 in 10.0 mi SW 24.2 mph 27.6 mph N/A   Overcast
10:35 AM 39.2 °F 28.7 °F 28.4 °F 65% 29.72 in 10.0 mi SW 23.0 mph 32.2 mph N/A   Scattered Clouds
10:55 AM 41.0 °F 30.0 °F 26.6 °F 57% 29.74 in 10.0 mi SW 28.8 mph 36.8 mph N/A   Clear
11:15 AM 41.0 °F 30.5 °F 28.4 °F 61% 29.75 in 10.0 mi SW 26.5 mph 33.4 mph N/A   Clear
11:34 AM 41.0 °F 29.8 °F 28.4 °F 61% 29.76 in 10.0 mi SW 29.9 mph 33.4 mph N/A   Scattered Clouds
11:54 AM 42.8 °F 32.7 °F 28.4 °F 57% 29.77 in 10.0 mi WSW 27.6 mph 36.8 mph N/A   Scattered Clouds
12:15 PM 42.8 °F 32.1 °F 28.4 °F 57% 29.78 in 10.0 mi SW 31.1 mph 35.7 mph N/A   Scattered Clouds
12:35 PM 42.8 °F 32.5 °F 28.4 °F 57% 29.79 in 10.0 mi WSW 28.8 mph 35.7 mph N/A   Clear
12:54 PM 42.8 °F 32.5 °F 28.4 °F 57% 29.81 in 10.0 mi WSW 28.8 mph 39.1 mph N/A   Clear
1:15 PM 42.8 °F 32.5 °F 28.4 °F 57% 29.81 in 10.0 mi SW 28.8 mph 35.7 mph N/A   Clear
1:34 PM 42.8 °F 33.1 °F 30.2 °F 61% 29.82 in 10.0 mi WSW 25.3 mph 35.7 mph N/A   Clear
1:55 PM 42.8 °F 33.8 °F 28.4 °F 57% 29.83 in 10.0 mi WSW 21.9 mph 31.1 mph N/A   Scattered Clouds
2:15 PM 42.8 °F 33.8 °F 28.4 °F 57% 29.84 in 10.0 mi WSW 21.9 mph 33.4 mph N/A   Scattered Clouds
2:34 PM 44.6 °F 35.3 °F 28.4 °F 53% 29.84 in 10.0 mi WSW 26.5 mph 31.1 mph N/A   Scattered Clouds
2:55 PM 44.6 °F 35.5 °F 28.4 °F 53% 29.85 in 10.0 mi WSW 25.3 mph 31.1 mph N/A   Mostly Cloudy
3:15 PM 44.6 °F 35.3 °F 28.4 °F 53% 29.86 in 10.0 mi WSW 26.5 mph 34.5 mph N/A   Mostly Cloudy
3:34 PM 44.6 °F 35.3 °F 28.4 °F 53% 29.86 in 10.0 mi WSW 26.5 mph 34.5 mph N/A   Mostly Cloudy
3:54 PM 44.6 °F 35.7 °F 28.4 °F 53% 29.87 in 10.0 mi West 24.2 mph 32.2 mph N/A   Mostly Cloudy
4:15 PM 44.6 °F 35.9 °F 26.6 °F 49% 29.87 in 10.0 mi West 23.0 mph 29.9 mph N/A   Scattered Clouds
4:35 PM 42.8 °F 33.1 °F 26.6 °F 53% 29.88 in 10.0 mi West 25.3 mph 33.4 mph N/A   Mostly Cloudy
4:55 PM 42.8 °F 34.0 °F 26.6 °F 53% 29.89 in 10.0 mi WSW 20.7 mph 28.8 mph N/A   Overcast
5:15 PM 41.0 °F 31.4 °F 26.6 °F 57% 29.90 in 10.0 mi West 21.9 mph - N/A   Overcast
5:34 PM 41.0 °F 32.5 °F 26.6 °F 57% 29.91 in 10.0 mi West 17.3 mph 25.3 mph N/A   Overcast
5:55 PM 41.0 °F 31.6 °F 24.8 °F 53% 29.92 in 10.0 mi West 20.7 mph 27.6 mph N/A   Overcast
6:15 PM 41.0 °F 32.5 °F 26.6 °F 57% 29.93 in 10.0 mi West 17.3 mph 24.2 mph N/A   Overcast
6:35 PM 41.0 °F 31.4 °F 24.8 °F 53% 29.93 in 10.0 mi West 21.9 mph 26.5 mph N/A   Mostly Cloudy
6:55 PM 39.2 °F 29.8 °F 26.6 °F 61% 29.94 in 10.0 mi West 18.4 mph 24.2 mph N/A   Clear
7:15 PM 39.2 °F 30.2 °F 26.6 °F 61% 29.93 in 10.0 mi West 17.3 mph - N/A   Clear
7:35 PM 39.2 °F 30.2 °F 26.6 °F 61% 29.93 in 10.0 mi West 17.3 mph 24.2 mph N/A   Clear
7:55 PM 37.4 °F 28.9 °F 26.6 °F 65% 29.94 in 10.0 mi West 13.8 mph - N/A   Clear
8:14 PM 37.4 °F 29.8 °F 26.6 °F 65% 29.95 in 10.0 mi West 11.5 mph 18.4 mph N/A   Clear
8:35 PM 37.4 °F 29.8 °F 26.6 °F 65% 29.96 in 10.0 mi West 11.5 mph - N/A   Clear
8:55 PM 37.4 °F 30.3 °F 26.6 °F 65% 29.98 in 10.0 mi West 10.4 mph - N/A   Clear
9:15 PM 37.4 °F 29.3 °F 26.6 °F 65% 29.99 in 10.0 mi WSW 12.7 mph - N/A   Clear
9:34 PM 37.4 °F 30.3 °F 26.6 °F 65% 30.00 in 10.0 mi West 10.4 mph 16.1 mph N/A   Clear
9:55 PM 37.4 °F 30.3 °F 26.6 °F 65% 30.02 in 10.0 mi WSW 10.4 mph 17.3 mph N/A   Clear
10:14 PM 37.4 °F 30.3 °F 26.6 °F 65% 30.02 in 10.0 mi WSW 10.4 mph - N/A   Clear
10:35 PM 37.4 °F 30.8 °F 28.4 °F 70% 30.03 in 10.0 mi WSW 9.2 mph - N/A   Clear
10:55 PM 37.4 °F 30.3 °F 28.4 °F 70% 30.03 in 10.0 mi WSW 10.4 mph 16.1 mph N/A   Clear
11:15 PM 37.4 °F 30.3 °F 28.4 °F 70% 30.04 in 10.0 mi WSW 10.4 mph - N/A   Scattered Clouds
11:35 PM 37.4 °F 29.8 °F 28.4 °F 70% 30.04 in 10.0 mi WSW 11.5 mph 17.3 mph N/A   Mostly Cloudy
11:55 PM 37.4 °F 29.8 °F 28.4 °F 70% 30.03 in 10.0 mi West 11.5 mph - N/A   Scattered Clouds